Sand Point, AK

3:16 PM AKDT on June 28, 2017 (GMT -0800)
Sand Point

Weather History for PASD - February, 2013

Change the Weather History Date:

Friday, February 22, 2013

  Actual Average Record
Temperature  
Mean Temperature 35 °F -  
Max Temperature 37 °F 34 °F 42 °F (2003)
Min Temperature 33 °F 28 °F 11 °F (1984)
Degree Days  
Heating Degree Days 30    
Moisture  
Dew Point 32 °F    
Average Humidity 87    
Maximum Humidity 100    
Minimum Humidity 70    
Precipitation  
Precipitation 0.00 in - - ()
Sea Level Pressure  
Sea Level Pressure 29.44 in    
Wind  
Wind Speed 16 mph (SSW)    
Max Wind Speed 39 mph    
Max Gust Speed 53 mph    
Visibility 7 miles    
Events      
Averages and records for this station are not official NWS values.
T = Trace of Precipitation, MM = Missing Value Source: NWS Daily Summary

Daily Weather History Graph

Daily Weather History Graph

Search for Another Location

Airport or City:

Trip Planner

Search our weather history database for the weather conditions in past years. The results will help you decide how hot, cold, wet, or windy it might be!

Date:

Astronomy

Feb. 22, 2013 Rise Set
Actual Time 8:48 AM AKST 7:03 PM AKST
Civil Twilight 8:10 AM AKST 7:41 PM AKST
Nautical Twilight 7:28 AM AKST 8:23 PM AKST
Astronomical Twilight 6:46 AM AKST 9:05 PM AKST
Moon 4:08 PM AKST (2/22) 7:01 AM AKST (2/22)
Length of Visible Light 11h 30m
Length of Day
10h 15m
Waxing Gibbous, 91% of the Moon is Illuminated
Feb 22
Waxing Gibbous
Feb 25
Full
Mar 4
Last Quarter
Mar 11
New
Mar 19
First Quarter

Hourly Weather History & Observations

Time (AKST) Temp. Windchill Dew Point Humidity Pressure Visibility Wind Dir Wind Speed Gust Speed Precip Events Conditions
12:16 AM 35.6 °F 24.2 °F 28.4 °F 75% 29.72 in 10.0 mi WSW 21.9 mph 33.4 mph N/A   Mostly Cloudy
12:36 AM 35.6 °F 24.8 °F 30.2 °F 81% 29.73 in 10.0 mi WSW 19.6 mph 27.6 mph N/A   Mostly Cloudy
12:56 AM 35.6 °F 25.5 °F 30.2 °F 81% 29.72 in 10.0 mi West 17.3 mph 26.5 mph N/A   Mostly Cloudy
1:16 AM 35.6 °F 25.2 °F 30.2 °F 81% 29.72 in 10.0 mi WSW 18.4 mph 25.3 mph N/A   Overcast
1:36 AM 37.4 °F 26.6 °F 28.4 °F 70% 29.75 in 10.0 mi West 21.9 mph 28.8 mph N/A   Mostly Cloudy
1:56 AM 35.6 °F 24.8 °F 28.4 °F 75% 29.75 in 10.0 mi West 19.6 mph 27.6 mph N/A   Mostly Cloudy
2:16 AM 35.6 °F 25.9 °F 30.2 °F 81% 29.74 in 10.0 mi West 16.1 mph 25.3 mph N/A   Mostly Cloudy
2:56 AM 35.6 °F 24.0 °F 28.4 °F 75% 29.75 in 10.0 mi WSW 23.0 mph 32.2 mph N/A   Partly Cloudy
3:16 AM 35.6 °F 25.2 °F 28.4 °F 75% 29.75 in 10.0 mi West 18.4 mph 28.8 mph N/A   Clear
3:36 AM 35.6 °F 26.6 °F 28.4 °F 75% 29.74 in 10.0 mi West 13.8 mph 21.9 mph N/A   Clear
3:56 AM 35.6 °F 25.9 °F 30.2 °F 81% 29.75 in 10.0 mi West 16.1 mph 20.7 mph N/A   Clear
4:16 AM 35.6 °F 28.0 °F 30.2 °F 81% 29.75 in 10.0 mi West 10.4 mph - N/A   Mostly Cloudy
4:36 AM 35.6 °F 28.6 °F 30.2 °F 81% 29.76 in 10.0 mi West 9.2 mph - N/A   Overcast
4:56 AM 35.6 °F 29.9 °F 30.2 °F 81% 29.76 in 10.0 mi West 6.9 mph - N/A   Overcast
5:16 AM 35.6 °F 26.6 °F 30.2 °F 81% 29.75 in 10.0 mi West 13.8 mph - N/A   Overcast
5:36 AM 35.6 °F 25.5 °F 30.2 °F 81% 29.76 in 10.0 mi WSW 17.3 mph 21.9 mph N/A   Mostly Cloudy
5:56 AM 35.6 °F 27.1 °F 28.4 °F 75% 29.76 in 10.0 mi West 12.7 mph - N/A   Scattered Clouds
6:16 AM 35.6 °F 29.2 °F 28.4 °F 75% 29.76 in 10.0 mi West 8.1 mph 17.3 mph N/A   Clear
6:36 AM 35.6 °F 29.2 °F 28.4 °F 75% 29.76 in 10.0 mi WSW 8.1 mph 17.3 mph N/A   Clear
6:56 AM 35.6 °F 28.0 °F 28.4 °F 75% 29.76 in 10.0 mi SW 10.4 mph 16.1 mph N/A   Clear
7:16 AM 35.6 °F 27.1 °F 28.4 °F 75% 29.75 in 10.0 mi SSW 12.7 mph - N/A   Clear
7:36 AM 35.6 °F 27.5 °F 28.4 °F 75% 29.74 in 10.0 mi SW 11.5 mph 18.4 mph N/A   Clear
7:56 AM 35.6 °F 27.1 °F 28.4 °F 75% 29.74 in 10.0 mi SW 12.7 mph 16.1 mph N/A   Clear
8:16 AM 35.6 °F 28.0 °F 30.2 °F 81% 29.74 in 10.0 mi SSW 10.4 mph - N/A   Partly Cloudy
8:36 AM 35.6 °F 31.7 °F 30.2 °F 81% 29.74 in 10.0 mi SSW 4.6 mph - N/A   Mostly Cloudy
8:56 AM 35.6 °F 32.8 °F 30.2 °F 81% 29.72 in 10.0 mi SW 3.5 mph - N/A   Scattered Clouds
9:16 AM 35.6 °F 29.9 °F 30.2 °F 81% 29.71 in 10.0 mi SSW 6.9 mph - N/A   Partly Cloudy
9:36 AM 35.6 °F 31.7 °F 32.0 °F 87% 29.69 in 10.0 mi SSW 4.6 mph - N/A   Mostly Cloudy
9:56 AM 35.6 °F 30.7 °F 32.0 °F 87% 29.67 in 10.0 mi SE 5.8 mph - N/A   Mostly Cloudy
10:16 AM 35.6 °F 31.7 °F 32.0 °F 87% 29.64 in 10.0 mi SE 4.6 mph - N/A   Mostly Cloudy
10:36 AM 35.6 °F 29.9 °F 33.8 °F 93% 29.62 in 10.0 mi SSE 6.9 mph - N/A   Mostly Cloudy
10:56 AM 35.6 °F - 33.8 °F 93% 29.60 in 10.0 mi Calm Calm - N/A   Mostly Cloudy
11:16 AM 35.6 °F 28.6 °F 33.8 °F 93% 29.59 in 10.0 mi SSE 9.2 mph - N/A   Mostly Cloudy
11:36 AM 35.6 °F 28.6 °F 33.8 °F 93% 29.58 in 10.0 mi SSE 9.2 mph - N/A   Mostly Cloudy
11:56 AM 37.4 °F 28.5 °F 33.8 °F 87% 29.57 in 10.0 mi SE 15.0 mph - N/A   Overcast
12:16 PM 37.4 °F 29.8 °F 33.8 °F 87% 29.55 in 10.0 mi SE 11.5 mph - N/A   Overcast
12:36 PM 37.4 °F 27.8 °F 33.8 °F 87% 29.53 in 10.0 mi SSE 17.3 mph 21.9 mph N/A   Overcast
12:56 PM 35.6 °F 25.2 °F 33.8 °F 93% 29.52 in 10.0 mi SSE 18.4 mph 23.0 mph N/A   Overcast
1:16 PM 35.6 °F 24.0 °F 33.8 °F 93% 29.52 in 9.0 mi SSE 23.0 mph 26.5 mph N/A   Mostly Cloudy
1:36 PM 35.6 °F 23.4 °F 33.8 °F 93% 29.51 in 6.0 mi SSE 25.3 mph 32.2 mph N/A   Mostly Cloudy
1:56 PM 33.8 °F 24.3 °F 33.8 °F 100% 29.46 in 3.0 mi SE 13.8 mph 25.3 mph N/A   Overcast
2:16 PM 33.8 °F 21.3 °F 33.8 °F 100% 29.44 in 6.0 mi SSE 24.2 mph 28.8 mph N/A   Overcast
2:36 PM 35.6 °F 26.6 °F 30.2 °F 81% 29.40 in 9.0 mi SE 13.8 mph 21.9 mph N/A   Mostly Cloudy
2:56 PM 35.6 °F 27.5 °F 30.2 °F 81% 29.36 in 5.0 mi SE 11.5 mph 17.3 mph N/A   Overcast
3:16 PM 35.6 °F 26.2 °F 32.0 °F 87% 29.32 in 4.0 mi SE 15.0 mph 20.7 mph N/A   Overcast
3:36 PM 33.8 °F 27.7 °F 33.8 °F 100% 29.25 in 3.0 mi SE 6.9 mph - N/A   Overcast
3:56 PM 35.6 °F 27.5 °F 33.8 °F 93% 29.25 in 3.0 mi SE 11.5 mph 17.3 mph N/A   Overcast
4:16 PM 33.8 °F 23.9 °F 33.8 °F 100% 29.24 in 2.5 mi SE 15.0 mph 23.0 mph N/A   Overcast
4:36 PM 33.8 °F 24.3 °F 33.8 °F 100% 29.22 in 2.5 mi SE 13.8 mph 19.6 mph N/A   Overcast
4:56 PM 33.8 °F 29.6 °F 33.8 °F 100% 29.18 in 1.0 mi SE 4.6 mph - N/A   Overcast
5:16 PM 33.8 °F 27.0 °F 33.8 °F 100% 29.14 in 1.0 mi SE 8.1 mph - N/A   Overcast
5:36 PM 33.8 °F 29.6 °F 33.8 °F 100% 29.11 in 0.5 mi ESE 4.6 mph - N/A   Overcast
5:56 PM 33.8 °F 28.6 °F 33.8 °F 100% 29.08 in 0.5 mi ESE 5.8 mph - N/A   Overcast
6:16 PM 33.8 °F 30.8 °F 33.8 °F 100% 29.05 in 0.5 mi East 3.5 mph - N/A   Overcast
6:36 PM 33.8 °F - 33.8 °F 100% 29.01 in 0.5 mi Calm Calm - N/A   Overcast
6:56 PM 33.8 °F - 33.8 °F 100% 28.99 in 0.5 mi Calm Calm - N/A   Overcast
7:16 PM 33.8 °F 30.8 °F 33.8 °F 100% 28.97 in 0.5 mi East 3.5 mph - N/A   Overcast
7:36 PM 33.8 °F 27.7 °F 33.8 °F 100% 28.96 in 0.5 mi SSE 6.9 mph - N/A   Overcast
7:56 PM 33.8 °F 27.7 °F 32.0 °F 93% 28.94 in 0.5 mi West 6.9 mph - N/A   Overcast
8:16 PM 35.6 °F 23.2 °F 33.8 °F 93% 28.96 in 7.0 mi SW 26.5 mph 36.8 mph N/A   Overcast
8:36 PM 37.4 °F 25.2 °F 33.8 °F 87% 28.95 in 10.0 mi SW 28.8 mph 47.2 mph N/A   Overcast
8:56 PM 35.6 °F 21.0 °F 32.0 °F 87% 28.95 in 10.0 mi SW 39.1 mph 52.9 mph N/A   Overcast
9:16 PM 35.6 °F 23.2 °F 32.0 °F 87% 28.96 in 8.0 mi SW 26.5 mph 44.9 mph N/A   Overcast
9:36 PM 35.6 °F 22.1 °F 32.0 °F 87% 28.98 in 8.0 mi SW 32.2 mph 47.2 mph N/A   Overcast
9:56 PM 35.6 °F 22.1 °F 32.0 °F 87% 28.99 in 7.0 mi SW 32.2 mph 48.3 mph N/A   Overcast
10:16 PM 35.6 °F 22.7 °F 32.0 °F 87% 28.99 in 3.0 mi SW 28.8 mph 41.4 mph N/A   Overcast
10:36 PM 35.6 °F 23.2 °F 32.0 °F 87% 29.01 in 3.0 mi SW 26.5 mph 46.0 mph N/A   Overcast
10:56 PM 35.6 °F 21.3 °F 32.0 °F 87% 29.02 in 2.0 mi SW 36.8 mph 49.5 mph N/A   Overcast
11:16 PM 35.6 °F 21.1 °F 32.0 °F 87% 29.02 in 3.0 mi SW 38.0 mph 50.6 mph N/A   Overcast
11:36 PM 35.6 °F 21.5 °F 30.2 °F 81% 29.04 in 5.0 mi SW 35.7 mph 51.8 mph N/A   Overcast
11:56 PM 35.6 °F 21.5 °F 30.2 °F 81% 29.04 in 7.0 mi SW 35.7 mph 49.5 mph N/A   Overcast